Regional Weather Roundup
Issued by NWS San Diego, CA

Home | Current Version | Previous Version | Text Only | Print | Product List | Glossary On
Versions: 1 2 3 4 5 6 7 8 9 10 11 12 13 14 15 16 17 18 19 20 21 22 23 24 25 26 27 28 29 30 31 32 33 34 35 36 37 38 39 40 41 42 43 44 45 46 47 48 49 50
000
ASUS46 KSGX 222110
RWRSGX

SAN DIEGO HOURLY WEATHER ROUNDUP
NATIONAL WEATHER SERVICE SAN DIEGO CA
200 PM PDT WED OCT 22 2014

NOTE: "FAIR" INDICATES FEW OR NO CLOUDS BELOW 12,000 FEET WITH NO
SIGNIFICANT WEATHER AND/OR OBSTRUCTIONS TO VISIBILITY.

CAZ042-043-060-061-PZZ750-775-222200-

GREATER SAN DIEGO AREA

CITY           SKY/WX    TMP DP  RH WIND       PRES   REMARKS
LINDBERGH FLD  MOSUNNY   74  62  66 NW9       29.91F
POINT LOMA       N/A     71  62  74 W21         N/A
NATIONAL CITY    N/A     78  65  64 W3        29.90F
CHULA VISTA      N/A     76  64  65 W6        29.83F
IMPERIAL BEACH MOSUNNY   74  65  73 W12       29.90F
BROWN FIELD    SUNNY     77  58  51 W9        29.90S
MIRAMAR MCAS   MOSUNNY   80  57  45 NW10      29.90S
MONTGOMERY FLD SUNNY     81  59  47 W9        29.90F

$$

NORTH SAN DIEGO COUNTY

CITY           SKY/WX    TMP DP  RH WIND       PRES   REMARKS
CAMP PENDLETON MOSUNNY   78  54  43 SW12      29.89S
OCEANSIDE AP   SUNNY     76  58  53 W9        29.89F
OCEANSIDE HBR    N/A     70  65  83 W13       29.93F
VISTA            N/A     77  60  55 W3        29.88F
CARLSBAD       SUNNY     73  60  63 VRB6      29.90S
DEL MAR          N/A     75  67  75 CALM      29.93S
LA JOLLA SCRIP   N/A     71  66  85 CALM      29.88F
FALLBROOK        N/A     84  50  30 SW6       29.88F
ESCONDIDO        N/A     84  58  40 W5        29.91F
SAN MARCOS       N/A     78  60  53 W10       29.88F
POWAY            N/A     84  59  42 W3        29.90

$$

EAST SAN DIEGO COUNTY

CITY           SKY/WX    TMP DP  RH WIND       PRES   REMARKS
RAMONA         SUNNY     86  45  23 W12       29.92F
SANTEE LAKES     N/A     85  59  40 SW7       29.89F
LA MESA          N/A     80  61  52 W10       29.83F
JAMUL            N/A     86  51  29 W2        29.88F
DESCANSO N       N/A     84  22  10 W8        29.83F
MT. LAGUNA OBS   N/A     73  15  11 SE6       29.71F
CAMPO            N/A     86  20   9 SW15      29.93F

$$

ORANGE COUNTY AND THE LOS ANGELES BASIN

CITY           SKY/WX    TMP DP  RH WIND       PRES   REMARKS
JOHN WAYNE AP  PTSUNNY   82  57  42 W7        29.89F
LAKE FOREST FR   N/A     83  50  30 W3        29.81F
SANTA ANA        N/A     84  65  51 CALM      29.85F
HUNTINGTON BCH   N/A     75  67  77 SW6       29.93F
LOS ALAMITOS   PTSUNNY   78  64  60 SW10      29.89F
FULLERTON      SUNNY     84  59  42 SW10      29.88F
LONG BEACH     SUNNY     79  63  57 S9        29.89F
L.A. AP        MOSUNNY   73  62  68 W13       29.91F
L.A. DOWNTOWN  SUNNY     81  57  43 VRB5      29.89F

$$

THE INLAND EMPIRE

CITY           SKY/WX    TMP DP  RH WIND       PRES   REMARKS
CORONA         MOSUNNY   87  44  22 CALM      29.89F
CHINO          MOSUNNY   87  42  20 CALM      29.90F
ONTARIO        PTSUNNY   86  41  20 SW8       29.90F
SAN BERNARDINO PTSUNNY  N/A N/A N/A CALM      29.90F
RIVERSIDE AP   SUNNY     88  24  10 VRB5      29.89F
RIV CYN CREST    N/A     87  54  31 W3        29.88F
MORENO VALLEY    N/A     89  36  15 CALM      29.12S
MARCH ARB      SUNNY     87  15   7 VRB2      29.92F
PERRIS           N/A     87  24  10 CALM      29.90F
MENIFEE          N/A     90  33  13 NE3       29.97F
HEMET EAST       N/A     88  17   7 CALM      29.90F
FRENCH VALLEY  FAIR      88  27  11 SW6       29.92S
TEMECULA         N/A     90  38  16 SW7       29.86F

$$

SAN BERNARDINO AND RIVERSIDE COUNTY MOUNTAINS

CITY           SKY/WX    TMP DP  RH WIND       PRES   REMARKS
BIG BEAR AP    SUNNY     66  23  19 E9        30.21F
ANGELUS OAKS     N/A     74  35  23 CALM      29.89F
PINE COVE        N/A     71  16  12 S3        29.86S

$$

SOUTHERN DESERT INCLUDING THE COACHELLA VALLEY

CITY           SKY/WX    TMP DP  RH WIND       PRES   REMARKS
PALM SPRINGS   MOSUNNY   92  33  12 VRB7      29.89F
THOUSAND PALMS   N/A     92  39  15 E5        29.84F
PALM DESERT      N/A     95  44  17 CALM      29.80S
THERMAL        SUNNY     93  40  15 S7        29.84F
BLYTHE         SUNNY     91  48  22 VRB3      29.88F
IMPERIAL AP    SUNNY     92  45  19 NE3       29.85F
EL CENTRO NAS  MOSUNNY   92  47  21 CALM      29.85F
YUMA AZ        MOSUNNY   95  45  17 CALM      29.85F
MEXICALI       SUNNY     93  43  17 N5        29.87

$$

UPPER DESERT

CITY           SKY/WX    TMP DP  RH WIND       PRES   REMARKS
VICTORVILLE AP MOSUNNY   75  30  19 N5        30.04F
HESPERIA         N/A     74  34  23 CALM      30.10F
APPLE VALLEY     N/A     80  33  18 CALM      30.06F
PALMDALE       SUNNY     77  34  21 VRB3      30.03F
LANCASTER      SUNNY     77  31  18 E8        30.03F
EDWARDS AFB    PTSUNNY   74  34  22 NE5       30.01F
DAGGETT        SUNNY     81  30  15 N7        30.00F
29 PALMS N     MOSUNNY   83  34  17 CALM      30.04F
NEEDLES        SUNNY     90  41  18 VRB5      29.93F

$$

REGIONAL REPORTS

CITY           SKY/WX    TMP DP  RH WIND       PRES   REMARKS
SANTA BARBARA  MOSUNNY   77  56  48 W12       29.91F
SANDBERG       SUNNY     75  28  17 E13       30.12F
MT. WILSON       N/A     77  39  25 S6          N/A
LAS VEGAS NV   MOSUNNY   80  26  13 S8        29.97F
PHOENIX AZ     MOSUNNY   89  50  26 N6        29.91F
TIJUANA        SUNNY     84  55  37 W13       29.92S

$$

OFFSHORE ISLANDS

CITY           SKY/WX    TMP DP  RH WIND       PRES   REMARKS
CATALINA ARPT  SUNNY     71  60  68 W9        29.96F
SAN NICOLAS IS MOSUNNY   73  59  61 VRB3      29.93F

$$

MARINE AND OFFSHORE BUOY REPORTS

STATION/POSITION SKY/WX   TEMP    WIND        PRES    SWELL
                          AIR SEA DIR/SP/G            HT/PER/DIR
                          (F)     (DEG/KT/KT) (MB)    (FT/S/D)
TANNER BANKS               67 69  330/ 12/ 16 1013.2F  11/300/14
S CLEMENTE BASIN           69 72  250/  4/  6 1012.6F   8/290/14
SAN NICOLAS IS.               68                N/A     8/290/13
SO. S. ROSA ISLA           66 68  330/ 14/ 17 1013.3F   8/14
W. S. BARBARA CH           66 66  320/ 19/ 23 1013.1F   7/310/14
S. MONICA BASIN            70 74  240/  4/  6 1013.0F   7/260/10
S PEDRO CHANNEL               72                N/A     3/270/11
DANA POINT                    70                N/A     2/290/11
CMP PENDLETON NS              70                N/A     2/250/11
OCEANSIDE OFFSHR              72                N/A     3/260/11
TORREY PINES OTR              72                N/A     3/270/14
LA JOLLA 1                 71 71  310/  5/  7 1012.7F
MISSION BAY BUOY              73                N/A     3/270/14
SAN DIEGO BAY                 74              1012.9F
POINT LOMA SOUTH              72                N/A     5/280/13

$$




USA.gov is the U.S. government's official web portal to all federal, state and local government web resources and services.